Flag Weather past 2 weeks in Ingelheim am Rhein, Rhineland-Palatinate, Germany

Now
39 °F

Overcast.


Feels Like: 33 °F
Forecast: 35 / 40 °F
Wind: 10 mph from East

Location: Wiesbaden Airport

Current Time: Nov 26, 2014 at 11:42:26 AM

Latest Report: Nov 26, 2014 at 10:58 AM


Visibility: N/A

Pressure: 30.08 "Hg

Humidity: 86%

Dew point: 35 °F

Location of Ingelheim am RheinLocation

Historic Weather in Ingelheim am Rhein — Graph

°F

Ingelheim am Rhein temperature yesterday

Maximum temperature yesterday: 45 °F (at 11:58 AM)
Minimum temperature yesterday: 34 °F (at 1:58 AM)
Average temperature yesterday: 41 °F

Past Weeks' High & Low Weather Summary

 TemperatureHumidityPressure
High54 °F (Nov 14, 1:58 PM)100% (Nov 11, 9:58 AM)30.36 "Hg (Nov 11, 9:58 AM)
Low34 °F (Nov 25, 1:58 AM)71% (Nov 21, 1:58 PM)29.53 "Hg (Nov 16, 5:59 AM)
Average46 °F94%29.97 "Hg
* Reported Nov 11 9:58 AM — Nov 26 9:58 AM, Ingelheim am Rhein, Weather by CustomWeather, © 2014

Note: Actual official high and low records may vary slightly from our data, if they occured in-between our weather recording intervals... More about our weather records

Advertising

Ingelheim am Rhein weather history for previous 24 hours

 ConditionsComfort  
Time TempWeatherWind HumidityBarometerVisibility
9:58 AM
Nov 26
37 °FLight rain. Overcast.14 mph87%30.09 "HgN/A
8:58 AM38 °FOvercast.13 mph82%30.09 "HgN/A
7:58 AM38 °FOvercast.14 mph84%30.09 "HgN/A
6:58 AM37 °FOvercast.14 mph87%30.09 "HgN/A
5:58 AM37 °FOvercast.12 mph87%30.10 "HgN/A
4:58 AM38 °FOvercast.13 mph83%30.11 "HgN/A
3:58 AM38 °FMostly cloudy.10 mph85%30.12 "HgN/A
2:58 AM39 °FMostly cloudy.13 mph84%30.14 "HgN/A
1:58 AM39 °FOvercast.12 mph83%30.15 "HgN/A
12:58 AM40 °FClear.10 mph84%30.16 "HgN/A
11:58 PM
Nov 25
41 °FOvercast.10 mph81%30.18 "HgN/A
10:58 PM42 °FOvercast.10 mph82%30.18 "HgN/A
9:58 PM43 °FOvercast.9 mph83%30.19 "HgN/A
8:58 PM43 °FOvercast.9 mph81%30.19 "HgN/A
7:58 PM41 °FOvercast.6 mph93%30.21 "HgN/A
6:58 PM41 °FOvercast.13 mph93%30.22 "HgN/A
5:58 PM40 °FOvercast.9 mph95%30.23 "HgN/A
4:58 PM40 °FLow clouds.7 mph97%30.24 "HgN/A
3:58 PM41 °FSunny.10 mph87%30.24 "HgN/A
2:58 PM43 °FScattered clouds.8 mph86%30.24 "HgN/A
1:58 PM44 °FSunny.13 mph81%30.25 "HgN/A
12:58 PM44 °FSunny.13 mph78%30.27 "HgN/A
11:58 AM45 °FSunny.14 mph76%30.28 "HgN/A
Weather by CustomWeather, © 2014

See weather overviewHow to use our weather pages